Regional Weather Roundup
Issued by NWS Mt. Holly, NJ

Home | Current Version | Previous Version | Text Only | Print | Product List | Glossary On
Versions: 1 2 3 4 5 6 7 8 9 10 11 12 13 14 15 16 17 18 19 20 21 22 23 24 25 26 27
000
ASUS41 KPHI 231012
RWRPHI

REGIONAL WEATHER ROUNDUP
NATIONAL WEATHER SERVICE MOUNT HOLLY NJ
500 AM EST TUE JAN 23 2018

NOTE:  "FAIR" INDICATES FEW OR NO CLOUDS BELOW 12,000 FEET WITH NO
SIGNIFICANT WEATHER AND/OR OBSTRUCTIONS TO VISIBILITY.

 * = STATION DOES NOT REPORT PRECIPITATION (E.G. RAIN, SNOW, ETC.)
        OR FOG.

NJZ015>026-231100-
SOUTHERN NEW JERSEY

CITY           SKY/WX    TMP DP  RH WIND       PRES   REMARKS
POMONA         CLOUDY    51  51 100 S12       29.86F
WILDWOOD*      MOCLDY    48  47  96 S15       29.87S
MILLVILLE      LGT RAIN  52  52 100 S8        29.84F
WRIGHTSTOWN    CLOUDY    52  50  93 S10       29.80F
MOUNT HOLLY    CLOUDY    51  48  89 S9        29.82F
TRENTON        RAIN      43  41  93 E5        29.82F FOG

$$
NJZ001>014-231100-
NORTHERN NEW JERSEY

CITY           SKY/WX    TMP DP  RH WIND       PRES   REMARKS
SUSSEX         CLOUDY    38  38 100 CALM      29.84F FOG
ANDOVER*         N/A     40  40 100 CALM      29.83F
MORRISTOWN     FOG       39  39 100 N3        29.87F VSB 1/4
NEWARK         FOG       40  39  97 NE7       29.86F VSB 1/2
TETERBORO      FOG       42  40  92 CALM      29.86F VSB 1
CALDWELL       FOG       39  39 100 NE5       29.87F VSB 1/4
SOMERVILLE     CLOUDY    39  39 100 CALM      29.83F FOG
ALLAIRE*       LGT RAIN  48  46  93 S8        29.86F VSB 1
TOMS RIVER*    CLOUDY    51  50  96 S9        29.87F

$$
PAZ043-044-047-054-055-060>062-066>071-231100-
EASTERN PENNSYLVANIA

CITY           SKY/WX    TMP DP  RH WIND       PRES   REMARKS
PHILADELPHIA   CLOUDY    53  49  86 S10G20    29.81F
NORTH PHILA    LGT RAIN  47  44  90 E3        29.83F FOG
BLUE BELL*     CLOUDY    41  41 100 CALM      29.83S
DOYLESTOWN     LGT RAIN  40  39  97 CALM      29.82F FOG
PERKASIE*      LGT RAIN  41  41 100 E6        29.82F
POTTSTOWN      LGT RAIN  42  41  96 E6        29.80F
LANCASTER      RAIN      48  48 100 SE9       29.75F FOG
COATESVILLE    LGT RAIN  46  46 100 VRB6      29.79F
READING        HVY RAIN  41  41 100 NW5       29.77F FOG
ALLENTOWN      CLOUDY    42  37  82 E9        29.79F HAZE
MOUNT POCONO   LGT RAIN  37  37 100 E8        29.76F VSB 1/2 WCI  31
HAZLETON       LGT RAIN  43  41  93 SE10G21   29.75S VSB 1
LEHIGHTON      HVY RAIN  41  41 100 NE3       29.79F
WILKES BARRE   LGT RAIN  43  41  93 N3        29.73F FOG

$$
DEZALL-MDZ008-012-015-019-020-231100-
DELAWARE AND EASTERN MARYLAND

CITY           SKY/WX    TMP DP  RH WIND       PRES   REMARKS
WILMINGTON     LGT RAIN  46  46 100 S13       29.81F
DOVER          MOCLDY    56  56 100 S12       29.81F
GEORGETOWN     FAIR      58  53  84 S10G22    29.84F
EASTON         MOCLDY    58  54  86 SW16G22   29.84F
ABERDEEN       LGT RAIN N/A N/A N/A CALM      29.80F
OCEAN CITY     CLOUDY    47  47 100 VRB6      29.88F
WALLOPS ISLAND MOCLDY    49  49 100 S17       29.88F
CAMBRIDGE      CLOUDY    54  52  94 S13G18    29.82F
SALISBURY      FAIR      59  55  87 S13       29.85F

$$
PAZ001-021-NYZ056-072-MDZ011-DCZ001-231100-
OTHER NEARBY LOCATIONS

CITY           SKY/WX    TMP DP  RH WIND       PRES   REMARKS
HARRISBURG     HVY RAIN  44  44 100 E9        29.75F FOG
STATE COLLEGE  CLOUDY    49  44  80 SW5       29.64F
WILLIAMSPORT   CLOUDY    46  43  89 SE14      29.68F
BINGHAMTON     MOCLDY    40  38  93 S14       29.65F WCI  32
NEW YORK CITY  FOG       40  39  97 E3        29.89F VSB 1
BALTIMORE      CLOUDY    50  49  96 SE6       29.76F
WASHINGTON DC  LGT RAIN  54  52  93 S14       29.75F

$$




USA.gov is the U.S. government's official web portal to all federal, state and local government web resources and services.